Location: Laura�t
(43.9341°N, 0.2497°E)
Time: 23:07:39
(UTC+00:00)

SME Rocket - Pass Details

Date: 03 March 2021
Orbit: 550 x 2652 km, 99.9° (Epoch: 17 April)

Event Time Altitude Azimuth Distance (km) Brightness Sun altitude
Rises 19:08:22 0° 17° (NNE) 4,862 7.5 -14.9°
Reaches altitude 10° 19:12:00 10° 23° (NNE) 3,536 6.7 -15.5°
Maximum altitude 19:19:24 45° 94° (E) 1,373 4.3 -16.8°
Drops below altitude 10° 19:24:21 10° 167° (SSE) 2,363 5.8 -17.7°
Sets 19:26:21 0° 175° (S) 3,122 6.5 -18.1°
